CW5624 Weather Reports


time (UTC)temp
F
wind
direction
speed
knots
gust
knots
rain 1hr
in
rain 24hr
in
rain mn
in
humidity
%
barometer
mb
20260505024911 57 5 0.0 1.7 0.00 0.00 0.00 62 1010.4
20260505023911 57 5 0.0 2.6 0.00 0.00 0.00 62 1010.3
20260505022911 58 82 0.9 1.7 0.00 0.00 0.00 60 1010.4
20260505021911 58 188 0.0 3.5 0.00 0.00 0.00 60 1010.4
20260505020911 58 30 2.6 3.5 0.00 0.00 0.00 59 1010.3
20260505015911 58 5 1.7 7.8 0.00 0.00 0.00 58 1010.2
20260505014911 59 148 0.0 2.6 0.00 0.00 0.00 57 1010.2
20260505013911 59 22 0.0 2.6 0.00 0.00 0.00 56 1010.1
20260505012911 59 339 0.0 2.6 0.00 0.00 0.00 55 1010.1
20260505011911 60 301 1.7 4.3 0.00 0.00 0.00 55 1010.0
20260505010911 60 355 0.0 4.3 0.00 0.00 0.00 54 1009.8
20260505005911 61 40 0.0 3.5 0.00 0.00 0.00 53 1009.6
20260505004911 61 251 0.0 6.1 0.00 0.00 0.00 52 1009.4
20260505003911 61 205 3.5 4.3 0.00 0.00 0.00 52 1009.3
20260505002912 62 11 0.0 4.3 0.00 0.00 0.00 51 1009.0
20260505001912 62 320 0.0 4.3 0.00 0.00 0.00 51 1008.7
20260505000911 63 162 0.0 3.5 0.00 0.00 0.00 50 1008.5
20260504235911 63 165 0.0 3.5 0.00 0.00 0.00 49 1008.2
20260504234911 64 53 0.0 3.5 0.00 0.00 0.00 49 1008.0
20260504233911 64 69 2.6 4.3 0.00 0.00 0.00 48 1007.8
20260504232911 65 165 0.0 5.2 0.00 0.00 0.00 48 1007.7
20260504231912 66 273 0.0 6.1 0.00 0.00 0.00 47 1007.6
20260504230911 66 295 0.0 3.5 0.00 0.00 0.00 46 1007.4
20260504225911 67 145 1.7 5.2 0.00 0.00 0.00 44 1007.1
20260504224911 67 22 0.0 4.3 0.00 0.00 0.00 43 1007.0
20260504223911 68 205 0.0 3.5 0.00 0.00 0.00 42 1006.8
20260504222911 68 250 0.0 4.3 0.00 0.00 0.00 42 1006.7
20260504221912 69 290 0.9 6.1 0.00 0.00 0.00 40 1006.7
20260504220911 70 40 0.0 5.2 0.00 0.00 0.00 38 1006.7
20260504215911 71 5 0.9 6.1 0.00 0.00 0.00 35 1006.6
20260504214911 71 325 0.0 2.6 0.00 0.00 0.00 35 1006.5
20260504213911 72 102 0.0 4.3 0.00 0.00 0.00 34 1006.6
20260504212911 72 232 0.0 7.0 0.00 0.00 0.00 34 1006.6
20260504211911 72 13 0.9 5.2 0.00 0.00 0.00 33 1006.6
20260504210911 72 286 0.0 5.2 0.00 0.00 0.00 33 1006.5
20260504205911 72 266 0.0 4.3 0.00 0.00 0.00 32 1006.6
20260504204911 72 302 0.9 4.3 0.00 0.00 0.00 33 1006.5
20260504203912 73 238 0.9 5.2 0.00 0.00 0.00 32 1006.6
20260504202911 73 168 1.7 4.3 0.00 0.00 0.00 32 1006.7
20260504201911 73 232 1.7 7.8 0.00 0.00 0.00 31 1006.7
20260504200911 74 240 0.0 5.2 0.00 0.00 0.00 30 1006.7
20260504195912 74 300 0.0 3.5 0.00 0.00 0.00 32 1006.7
20260504194911 74 355 1.7 4.3 0.00 0.00 0.00 29 1006.6
20260504193911 74 15 1.7 6.1 0.00 0.00 0.00 30 1006.9
20260504192913 73 28 0.9 6.1 0.00 0.00 0.00 30 1006.8
20260504191911 74 247 1.7 5.2 0.00 0.00 0.00 30 1006.8
20260504190911 74 177 1.7 4.3 0.00 0.00 0.00 30 1006.9
20260504185911 74 146 0.0 6.1 0.00 0.00 0.00 30 1006.9
20260504184912 74 241 0.0 5.2 0.00 0.00 0.00 30 1007.1
20260504183911 74 188 2.6 8.7 0.00 0.00 0.00 30 1007.1
20260504182911 73 28 0.9 6.1 0.00 0.00 0.00 32 1007.2
20260504181911 73 28 5.2 5.2 0.00 0.00 0.00 30 1007.1
20260504180911 73 239 2.6 4.3 0.00 0.00 0.00 30 1007.3
20260504175911 72 331 1.7 4.3 0.00 0.00 0.00 32 1007.4
20260504174912 72 294 0.9 9.6 0.00 0.00 0.00 34 1007.5
20260504173911 72 219 3.5 6.1 0.00 0.00 0.00 33 1007.4
20260504172913 71 238 5.2 5.2 0.00 0.00 0.00 32 1007.7
20260504171911 71 17 2.6 8.7 0.00 0.00 0.00 32 1007.6
20260504170912 71 306 1.7 6.1 0.00 0.00 0.00 33 1007.5
20260504150912 68 329 1.7 5.2 0.00 0.00 0.00 38 1008.9
20260504140913 64 243 0.9 4.3 0.00 0.00 0.00 42 1009.5
20260504081912 44 5 0.0 0.0 0.00 0.00 0.00 69 1010.6
20260504080912 44 5 0.0 0.0 0.00 0.00 0.00 69 1010.6
20260504045913 38 5 0.0 0.0 0.00 0.00 0.00 64 1010.5
20260504044914 38 5 0.0 0.0 0.00 0.00 0.00 65 1010.5
20260504043914 38 5 0.0 0.0 0.00 0.00 0.00 66 1010.5
20260504042913 39 5 0.0 0.0 0.00 0.00 0.00 68 1010.5
20260504041913 39 5 0.0 0.0 0.00 0.00 0.00 67 1010.5
20260504040914 39 5 0.0 0.0 0.00 0.00 0.00 69 1010.5
20260504035913 39 5 0.0 0.0 0.00 0.00 0.01 70 1010.2
20260504034913 40 5 0.0 0.0 0.00 0.00 0.01 70 1010.2
20260504033913 40 5 0.0 0.0 0.00 0.00 0.01 70 1010.1
20260504032914 40 5 0.0 0.0 0.00 0.00 0.01 70 1010.1
20260504031913 40 5 0.0 0.0 0.00 0.00 0.01 70 1010.1
20260504030913 40 5 0.0 0.0 0.00 0.00 0.01 70 1010.1
20260504025913 41 5 0.0 0.0 0.00 0.00 0.01 70 1010.0